Location: Izdebno
(52.6670°N, 16.2170°E)
Time: 03:31:00
(UTC+02:00)

Transit 4A - Pass Details

Date: 28 February 2024
Orbit: 871 x 972 km, 66.8° (Epoch: 22 April)

Event Time Altitude Azimuth Distance (km) Brightness Sun altitude
Rises 01:48:30 0° 229° (SW) 3,592 - -41.1°
Reaches altitude 10° 01:51:06 10° 233° (SW) 2,636 - -40.8°
Maximum altitude 01:57:10 64° 315° (NW) 1,009 - -40.3°
Exits shadow 02:00:25 28° 28° (NNE) 1,643 9.6 -40.0°
Drops below altitude 10° 02:03:08 10° 37° (NE) 2,579 10.9 -39.8°
Sets 02:05:38 0° 40° (NE) 3,510 11.8 -39.5°
